COSMOS 2251 DEB, 35645

Orbit data source: Space-Track

COSMOS 2251 DEB, 35645 is space debris in LEO originally from a launch on Wed, 16 Jun 1993 UTC launched from the Plesetsk Missile And Space Complex (PKMTR). The debris from Iridium 33, an American commercial communications satellite, has been tracked extensively since its accidental collision with the defunct Russian satellite Cosmos 2251 in 2009. This event, occurring at high speed in low Earth orbit (LEO), generated thousands of pieces of space debris, significantly increasing the risk of further collisions. The Iridium 33 debris cloud has impacted space traffic management and orbital debris mitigation strategies, making it a subject of ongoing study in space situational awareness.

Loading next visibility...
Identifier
35645, 1993-036ANL
Orbit
LEO
Country
Flag of CISCIS
Related business
Manufacturer
Unknown
Mission
Spacecraft
Bus & Motor
Unknown
Mass
Unknown
Launch date (UTC)
1993-06-16 (33 years ago)
Launch vehicle
Unknown
Launch site
Plesetsk Missile And Space Complex (PKMTR)
Object type
Payload
Rocket body
Debris
Shape & HBR
Unknown shape, 0.1 m
Radar Cross Section
Small (<0.1 m²)

Expand to show TLE details & history
Last TLE update: 16 hours ago

TLE from 16 hours ago
0 COSMOS 2251 DEB
1 35645U 93036ANL 26121.89687391  .00003596  00000-0  96266-3 0  9992
2 35645  73.9631 184.8403 0069704 308.2296  51.2600 14.47196770887988
Epoch: 2026-05-01T21:31Z
TLE epoch observation values (Epoch: 2026-05-01T21:31:29.905Z)
Latitude
-0.00006°
Longitude
2.14313°
Altitude
706.619 km
Speed
7.519 km/s
True Right ascension
12h 19m 21s
True Declination
0° 00' 00"
Sunlit
Object was in full shadow at epoch
Visualization orbit readout
Latitude
Unknown
Longitude
Unknown
Altitude
Unknown
Speed
Unknown
Apparent Right ascension
Unknown
Apparent Declination
Unknown
Sunlit
N/A
Visualization observer readout
Local Sidereal Time
20:46:54
Azimuth
Unknown
Elevation
Unknown
Doppler factor
Unknown
Orbital elements
Apogee altitude
782 km
Perigee altitude
682.873 km
Semi-major axis
7,110.574 km
Eccentricity
0.00697
Inclination
73.9631°
RAAN
184.8403°
Arg. of periapsis
308.2296°
True anomaly
51.88642°
Mean anomaly
51.26°
Eccentric anomaly
51.57287°
Mean motion
3.61981 °/min
Orbital period
99.45 mins
BSTAR
0.00096266
Loading maneuver chart data...
Computing Atmospheric mass density...
Loading historical data...
Loading historical data...
Loading historical data...
Loading historical data...
Loading historical data...
Loading historical data...
Loading historical data...

Documentation

Showing up to 5 results
|